This demonstration page uses our WeatherBlox Daily Observations layout. Learn more.

Left ArrowRight Arrow

44.8408, -93.29828

Hourly Observations for October 16, 2021

Temp ( °F °C ) Dew Point ( °F °C ) Humidity (%) Winds ( mph kmh ) Pressure ( in mb ) Visibility ( mi km ) Precip ( " mm )
12:53 am 00:53 Clear 44 6.7 36 2.2 73 73 WNW 7 11 29.98 1015 10 16 N/A
1:53 am 01:53 Mostly Clear 43 6.1 36 2.2 76 76 W 7 11 29.99 1016 10 16 N/A
2:53 am 02:53 Clear 43 6.1 36 2.2 76 76 W 7 11 30.00 1016 10 16 N/A
3:53 am 03:53 Clear 42 5.6 36 2.2 79 79 W 8 13 30.00 1016 10 16 N/A
4:53 am 04:53 Clear 41 5 35 1.7 79 79 W 5 7 30.01 1016 10 16 N/A
5:53 am 05:53 Clear 40 4.4 35 1.7 83 83 SSW 3 6 30.03 1017 10 16 N/A
6:53 am 06:53 Clear 38 3.3 33 0.6 83 83 SSW 3 6 30.04 1017 10 16 N/A
7:53 am 07:53 Sunny 38 3.3 33 0.6 83 83 SW 5 7 30.05 1018 10 16 N/A
8:53 am 08:53 Sunny 42 5.6 34 1.1 73 73 W 8 13 30.06 1018 10 16 N/A
9:53 am 09:53 Sunny 49 9.4 34 1.1 56 56 W 10 17 30.06 1018 10 16 N/A
10:53 am 10:53 Sunny 53 11.7 35 1.7 51 51 WNW 12 19 30.07 1018 10 16 N/A
11:53 am 11:53 Sunny 57 13.9 35 1.7 44 44 W 10 17 30.07 1018 10 16 N/A
12:53 pm 12:53 Sunny 58 14.4 33 0.6 39 39 W 16 26 30.07 1018 10 16 N/A
1:53 pm 13:53 Sunny 61 16.1 31 -0.6 32 32 WSW 12 19 30.05 1018 10 16 N/A
2:53 pm 14:53 Mostly Sunny 62 16.7 26 -3.3 25 25 WNW 13 20 30.04 1017 10 16 N/A
3:53 pm 15:53 Mostly Sunny 62 16.7 26 -3.3 25 25 W 12 19 30.04 1017 10 16 N/A
4:53 pm 16:53 Sunny 62 16.7 29 -1.7 29 29 W 13 20 30.04 1017 10 16 N/A
5:53 pm 17:53 Sunny 61 16.1 31 -0.6 32 32 W 10 17 30.03 1017 10 16 N/A
6:53 pm 18:53 Clear 58 14.4 32 undefined 38 38 N N/A 30.04 1017 10 16 N/A
7:53 pm 19:53 Clear 52 11.1 37 2.8 57 57 NW 3 6 30.05 1018 10 16 N/A
8:53 pm 20:53 Clear 49 9.4 37 2.8 64 64 W 3 6 30.07 1018 10 16 N/A
9:53 pm 21:53 Clear 51 10.6 37 2.8 59 59 WNW 7 11 30.08 1019 10 16 N/A
10:53 pm 22:53 Clear 49 9.4 38 3.3 66 66 WNW 7 11 30.09 1019 10 16 N/A
11:53 pm 23:53 Clear 48 8.9 38 3.3 68 68 W 3 6 30.09 1019 10 16 N/A

Powered by AerisWeather